Voltar ao catálogo

TJS-21

LostComunicaçõesHEO
NORAD 66586·PAYLOAD·🇨🇳 China

Lançado Nov 21, 2025 de Xichang Satellite Launch Center

Loading…

Próximas Passagens (próximas 24 horas)

TLE

ObsoletoSource: Space-Track

Época: Mar 25, 2026, 21:48 UTC

1 66586U 25269A   26084.90842167  .00001086  00000-0  00000-0 0  9997
2 66586  63.3110 151.4086 6825268 269.3056  18.6838  2.00654387  2506

Acompanhe TJS-21 em tempo real com AllMySat

Download on the App Store